Location: Rodanthe
(35.5920°N, 75.4670°W)
Time: 01:58:30
(UTC-04:00)

ISS - All Passes

Search period start: 01 October 2014 00:00
Search period end: 11 October 2014 00:00
Orbit: 413 x 416 km, 51.6° (Epoch: 30 September)

Date Brightness Start Highest point End Pass type
(mag) Time Alt. Az. Time Alt. Az. Time Alt. Az.
01 Oct - 04:00:46 10° N 04:02:33 14° NNE 04:04:18 10° ENE visible
01 Oct - 05:36:18 10° NW 05:39:38 84° SW 05:42:56 10° SE visible
01 Oct - 20:41:24 10° SSE 20:43:07 13° SE 20:44:49 10° E night (unlit)
01 Oct - 22:16:15 10° WSW 22:19:29 48° NW 22:22:43 10° NE night (unlit)
02 Oct - 04:47:16 10° NW 04:50:30 49° NE 04:53:44 10° ESE visible
02 Oct - 06:25:15 10° W 06:26:52 13° SW 06:28:28 10° SSW visible
02 Oct - 21:27:01 10° SW 21:30:20 87° SE 21:33:40 10° NE night (unlit)
02 Oct - 23:05:42 10° WNW 23:07:26 13° NNW 23:09:10 10° N night (unlit)
03 Oct - 03:58:22 10° NNW 04:01:18 28° NE 04:04:13 10° E visible
03 Oct - 05:35:08 10° WNW 05:37:54 24° SW 05:40:39 10° S visible
03 Oct - 20:38:06 10° SSW 20:41:15 42° SE 20:44:25 10° ENE visible
03 Oct - 22:15:33 10° W 22:18:04 20° NNW 22:20:35 10° NNE night (unlit)
04 Oct - 03:09:36 10° NNW 03:11:59 18° NNE 03:14:22 10° ENE night (unlit)
04 Oct - 04:45:39 10° WNW 04:48:52 48° SW 04:52:04 10° SSE visible
04 Oct - 19:49:35 10° S 19:52:12 22° SE 19:54:50 10° ENE visible
04 Oct - 21:25:45 10° W 21:28:45 31° NW 21:31:46 10° NNE visible
05 Oct - 02:21:05 10° N 02:22:35 12° NNE 02:24:05 10° NE night (unlit)
05 Oct - 03:56:24 10° NW 03:59:44 82° NE 04:03:02 10° SE night (unlit)
05 Oct - 19:02:03 10° SSE 19:03:12 11° SE 19:04:20 10° ESE visible
05 Oct - 20:36:14 10° WSW 20:39:30 56° NW 20:42:47 10° NE visible
05 Oct - 22:16:12 10° NNW 22:16:47 10° NNW 22:17:22 10° NNW night (unlit)
06 Oct - 03:07:19 10° NW 03:10:30 42° NE 03:13:40 10° ESE night (unlit)
06 Oct - 04:44:53 10° W 04:46:54 15° SW 04:48:55 10° SSW night (unlit)
06 Oct - 19:46:59 10° SW 19:50:17 73° SE 19:53:36 10° NE visible
06 Oct - 21:25:20 10° WNW 21:27:18 15° NNW 21:29:16 10° N visible
07 Oct - 02:18:21 10° NNW 02:21:10 25° NNE 02:23:59 10° E night (unlit)
07 Oct - 03:54:55 10° WNW 03:57:50 29° SW 04:00:45 10° SSE night (unlit)
07 Oct - 18:58:03 10° SSW 19:01:07 35° SE 19:04:11 10° ENE visible
07 Oct - 20:35:12 10° W 20:37:51 22° NNW 20:40:32 10° NNE visible
08 Oct - 01:29:33 10° NNW 01:31:45 16° NNE 01:33:57 10° ENE night (unlit)
08 Oct - 03:05:25 10° NW 03:08:41 59° SW 03:11:56 10° SE night (unlit)
08 Oct - 18:09:37 10° S 18:11:59 18° SE 18:14:22 10° E daylight
08 Oct - 19:45:23 10° WSW 19:48:28 35° NW 19:51:34 10° NNE visible
09 Oct - 00:41:04 10° N 00:42:14 11° NNE 00:43:24 10° NE night (unlit)
09 Oct - 02:16:07 10° NW 02:19:26 69° NE 02:22:44 10° SE night (unlit)
09 Oct - 18:55:50 10° SW 18:59:08 67° NW 19:02:27 10° NE visible
09 Oct - 20:35:13 10° NW 20:36:21 11° NNW 20:37:28 10° N visible
10 Oct - 01:26:59 10° NNW 01:30:06 36° NE 01:33:11 10° ESE night (unlit)
10 Oct - 03:04:13 10° W 03:06:34 18° SW 03:08:54 10° S night (unlit)
10 Oct - 18:06:34 10° SW 18:09:50 60° SE 18:13:07 10° NE daylight
10 Oct - 19:44:36 10° WNW 19:46:47 16° NNW 19:48:58 10° NNE visible
